STARLINK-33757, 63720

Orbit data source: Space-Track

STARLINK-33757, 63720 is a payload satellite owned by SpaceX/Seattle (US) in LEO that was launched on Mon, 28 Apr 2025 UTC via an FALCON 9 launch vehicle from the Air Force Western Test Range (AFWTR). Payload-class satellites include a variety of spacecraft equipped with specific instruments for various scientific and technological missions. These include communications satellites like Starlink; space stations such as the ISS; scientific satellites like the Hubble; Earth observation satellites from companies like Planet Labs, Umbra, and HawkEye 360; GPS; miniature CubeSats for education and research; and military/defense satellites.

Loading next visibility...
Identifier
63720, 2025-087Z
Orbit
LEO
Country
Flag of USUS
Related business
Manufacturer
SpaceX/Seattle
Mission
Operational Commercial Communications
Bus & Motor
STARLINK V2MO, Unknown motor
Mass
575 kg wet, ~530 kg dry
Launch date (UTC)
2025-04-28 (1 year ago)
Launch vehicle
FALCON 9
Launch site
Air Force Western Test Range (AFWTR)
Object type
Payload
Rocket body
Debris
Shape & HBR
Box + 2 Pan, 17.7 m
Radar Cross Section
36.964 m², Large (>1 m²)

Expand to show TLE details & history
Last TLE update: 1 day ago

TLE from 1 day ago
0 STARLINK-33757
1 63720U 25087Z   26170.54326386  .00014495  00000-0  50040-3 0  9998
2 63720  53.1597 106.4652 0001517  84.3095 275.8078 15.30211273 64795
Epoch: 2026-06-19T13:02Z
TLE epoch observation values (Epoch: 2026-06-19T13:02:17.997Z)
Latitude
-0.00008°
Longitude
3.11942°
Altitude
475.976 km
Speed
7.629 km/s
True Right ascension
07h 05m 51s
True Declination
0° 00' 00"
Sunlit
Object was in daylight at epoch
Visualization orbit readout
Latitude
Unknown
Longitude
Unknown
Altitude
Unknown
Speed
Unknown
Apparent Right ascension
Unknown
Apparent Declination
Unknown
Sunlit
N/A
Visualization observer readout
Local Sidereal Time
07:24:24
Azimuth
Unknown
Elevation
Unknown
Doppler factor
Unknown
Orbital elements
Apogee altitude
476.478 km
Perigee altitude
474.398 km
Semi-major axis
6,853.575 km
Eccentricity
0.00015
Inclination
53.1597°
RAAN
106.4652°
Arg. of periapsis
84.3095°
True anomaly
275.79051°
Mean anomaly
275.8078°
Eccentric anomaly
275.79915°
Mean motion
3.82532 °/min
Orbital period
94.11 mins
BSTAR
0.0005004
Loading maneuver chart data...
Computing Atmospheric mass density...
Loading historical data...
Loading historical data...
Loading historical data...
Loading historical data...
Loading historical data...
Loading historical data...
Loading historical data...

Documentation

Showing up to 5 results
|